When you browse on this site, cookies collect data to enhance your experience and personalize the content and advertising you see.
Visit our Privacy Policy to learn more. By continuing to use the site, you agree to this use of cookies and data.
  • In Österreich
  • Länderverzeichnis
  • Für 7 Tage
  • Wassertemperatur
  • Satellitenkarten
  • Wetterkarte
  • News
  • Widgets
  • user-avatar
    Anmelden

    Stündliche Wetter Cottage Grove

    Heute, 20 April, Samstag

    Zeit Temperatur Niederschläge Wind Luftdruck Luftfeuchtigkeit
    00:00 +8°C° 0 mm 2 m/S 736 mmHg 49%
    01:00 +8°C° 0 mm 2 m/S 736 mmHg 51%
    02:00 +7°C° 0 mm 2 m/S 736 mmHg 53%
    03:00 +7°C° 0 mm 2 m/S 736 mmHg 55%
    04:00 +7°C° 0 mm 2 m/S 736 mmHg 56%
    05:00 +7°C° 0 mm 3 m/S 736 mmHg 58%
    06:00 +7°C° 0 mm 3 m/S 736 mmHg 60%
    07:00 +9°C° 0 mm 3 m/S 736 mmHg 55%
    08:00 +11°C° 0 mm 4 m/S 735 mmHg 50%
    09:00 +14°C° 0 mm 5 m/S 735 mmHg 46%
    10:00 +16°C° 0 mm 5 m/S 735 mmHg 43%
    11:00 +19°C° 0 mm 5 m/S 734 mmHg 41%
    12:00 +20°C° 0 mm 5 m/S 734 mmHg 39%
    13:00 +21°C° 0 mm 5 m/S 733 mmHg 39%
    14:00 +22°C° 0 mm 5 m/S 733 mmHg 38%
    15:00 +23°C° 0 mm 5 m/S 732 mmHg 38%
    16:00 +23°C° 0 mm 4 m/S 732 mmHg 42%
    17:00 +22°C° 0 mm 3 m/S 732 mmHg 47%
    18:00 +21°C° 0 mm 3 m/S 731 mmHg 51%
    19:00 +20°C° 0 mm 3 m/S 731 mmHg 55%
    20:00 +18°C° 0 mm 3 m/S 732 mmHg 59%
    21:00 +16°C° 0 mm 3 m/S 732 mmHg 64%
    22:00 +16°C° 0 mm 3 m/S 732 mmHg 65%
    23:00 +14°C° 0 mm 3 m/S 732 mmHg 67%

    Morgen, 21 April, Sonntag

    Zeit Temperatur Niederschläge Wind Luftdruck Luftfeuchtigkeit
    00:00 +14°C° 0 mm 3 m/S 732 mmHg 69%
    01:00 +14°C° 0 mm 2 m/S 732 mmHg 72%
    02:00 +14°C° 0 mm 2 m/S 732 mmHg 76%
    03:00 +14°C° 0 mm 2 m/S 732 mmHg 79%
    04:00 +14°C° 0 mm 2 m/S 732 mmHg 80%
    05:00 +14°C° 0 mm 2 m/S 733 mmHg 81%
    06:00 +14°C° 0 mm 2 m/S 733 mmHg 82%
    07:00 +15°C° 0 mm 2 m/S 733 mmHg 80%
    08:00 +16°C° 0 mm 2 m/S 733 mmHg 78%
    09:00 +17°C° 0 mm 3 m/S 734 mmHg 75%
    10:00 +19°C° 0 mm 2 m/S 734 mmHg 68%
    11:00 +21°C° 0 mm 2 m/S 734 mmHg 61%
    12:00 +24°C° 0 mm 1 m/S 734 mmHg 54%
    13:00 +25°C° 0 mm 2 m/S 734 mmHg 52%
    14:00 +26°C° 0 mm 2 m/S 734 mmHg 51%
    15:00 +26°C° 0 mm 2 m/S 734 mmHg 49%
    16:00 +24°C° 0.4 mm 3 m/S 735 mmHg 57%
    17:00 +21°C° 0.4 mm 4 m/S 735 mmHg 66%
    18:00 +17°C° 0.4 mm 6 m/S 735 mmHg 75%
    19:00 +15°C° 0.7 mm 6 m/S 735 mmHg 78%
    20:00 +13°C° 0.7 mm 6 m/S 736 mmHg 81%
    21:00 +10°C° 0.7 mm 6 m/S 736 mmHg 85%
    22:00 +10°C° 0 mm 5 m/S 736 mmHg 85%
    23:00 +9°C° 0 mm 5 m/S 736 mmHg 86%

    übermorgen, 22 April, Montag

    Zeit Temperatur Niederschläge Wind Luftdruck Luftfeuchtigkeit
    00:00 +10°C° 0 mm 4 m/S 736 mmHg 86%
    01:00 +8°C° 0.1 mm 4 m/S 736 mmHg 87%
    02:00 +8°C° 0.1 mm 4 m/S 736 mmHg 87%
    03:00 +8°C° 0.1 mm 5 m/S 736 mmHg 88%
    04:00 +8°C° 0.5 mm 5 m/S 737 mmHg 89%
    05:00 +8°C° 0.5 mm 5 m/S 737 mmHg 89%
    06:00 +8°C° 0.5 mm 5 m/S 737 mmHg 90%
    07:00 +8°C° 1 mm 5 m/S 737 mmHg 90%
    08:00 +8°C° 1 mm 5 m/S 737 mmHg 90%
    09:00 +8°C° 1 mm 5 m/S 738 mmHg 90%
    10:00 +8°C° 2.2 mm 5 m/S 738 mmHg 90%
    11:00 +9°C° 2.2 mm 5 m/S 738 mmHg 89%
    12:00 +9°C° 2.2 mm 5 m/S 738 mmHg 89%
    13:00 +9°C° 0.5 mm 5 m/S 738 mmHg 89%
    14:00 +9°C° 0.5 mm 5 m/S 737 mmHg 88%
    15:00 +9°C° 0.5 mm 5 m/S 737 mmHg 88%
    16:00 +8°C° 0.5 mm 6 m/S 737 mmHg 88%
    17:00 +8°C° 0.5 mm 6 m/S 738 mmHg 88%
    18:00 +7°C° 0.5 mm 6 m/S 738 mmHg 88%
    19:00 +7°C° 0.1 mm 6 m/S 738 mmHg 88%
    20:00 +7°C° 0.1 mm 6 m/S 738 mmHg 88%
    21:00 +7°C° 0.1 mm 5 m/S 738 mmHg 89%
    22:00 +7°C° 0.1 mm 5 m/S 738 mmHg 89%
    23:00 +7°C° 0.1 mm 5 m/S 738 mmHg 89%

    23 April, Dienstag

    Zeit Temperatur Niederschläge Wind Luftdruck Luftfeuchtigkeit
    00:00 +6°C° 0.1 mm 5 m/S 738 mmHg 89%
    01:00 +6°C° 0.2 mm 5 m/S 738 mmHg 89%
    02:00 +6°C° 0.2 mm 5 m/S 738 mmHg 89%
    03:00 +6°C° 0.2 mm 5 m/S 738 mmHg 89%
    04:00 +6°C° 0.3 mm 5 m/S 739 mmHg 89%
    05:00 +6°C° 0.3 mm 5 m/S 739 mmHg 88%
    06:00 +6°C° 0.3 mm 5 m/S 740 mmHg 88%
    07:00 +7°C° 0 mm 5 m/S 740 mmHg 82%
    08:00 +8°C° 0 mm 5 m/S 741 mmHg 76%
    09:00 +9°C° 0 mm 5 m/S 741 mmHg 70%
    10:00 +10°C° 0 mm 5 m/S 741 mmHg 64%
    11:00 +13°C° 0 mm 5 m/S 741 mmHg 58%
    12:00 +14°C° 0 mm 5 m/S 741 mmHg 51%
    13:00 +15°C° 0 mm 5 m/S 740 mmHg 48%
    14:00 +16°C° 0 mm 5 m/S 740 mmHg 45%
    15:00 +16°C° 0 mm 5 m/S 740 mmHg 42%
    16:00 +17°C° 0 mm 4 m/S 740 mmHg 45%
    17:00 +15°C° 0 mm 4 m/S 740 mmHg 47%
    18:00 +14°C° 0 mm 3 m/S 740 mmHg 50%
    19:00 +12°C° 0 mm 3 m/S 740 mmHg 52%
    20:00 +11°C° 0 mm 3 m/S 740 mmHg 54%
    21:00 +9°C° 0 mm 2 m/S 741 mmHg 57%
    22:00 +8°C° 0 mm 2 m/S 741 mmHg 58%
    23:00 +7°C° 0 mm 2 m/S 741 mmHg 59%

    24 April, Mittwoch

    Zeit Temperatur Niederschläge Wind Luftdruck Luftfeuchtigkeit
    00:00 +6°C° 0 mm 2 m/S 741 mmHg 59%
    01:00 +7°C° 0 mm 1 m/S 740 mmHg 64%
    02:00 +7°C° 0 mm 1 m/S 740 mmHg 68%
    03:00 +6°C° 0 mm 1 m/S 740 mmHg 72%
    04:00 +6°C° 0 mm 1 m/S 740 mmHg 76%
    05:00 +6°C° 0 mm 1 m/S 740 mmHg 81%
    06:00 +6°C° 0 mm 1 m/S 740 mmHg 85%
    07:00 +8°C° 0 mm 2 m/S 740 mmHg 79%
    08:00 +10°C° 0 mm 2 m/S 740 mmHg 73%
    09:00 +13°C° 0 mm 2 m/S 740 mmHg 67%
    10:00 +15°C° 0 mm 2 m/S 740 mmHg 59%
    11:00 +16°C° 0 mm 2 m/S 739 mmHg 52%
    12:00 +18°C° 0 mm 2 m/S 739 mmHg 44%
    13:00 +19°C° 0 mm 2 m/S 738 mmHg 41%
    14:00 +20°C° 0 mm 3 m/S 738 mmHg 38%
    15:00 +20°C° 0 mm 3 m/S 737 mmHg 35%
    16:00 +20°C° 0 mm 3 m/S 737 mmHg 38%
    17:00 +19°C° 0 mm 2 m/S 736 mmHg 41%
    18:00 +18°C° 0 mm 2 m/S 736 mmHg 44%
    19:00 +17°C° 0 mm 2 m/S 736 mmHg 46%
    20:00 +16°C° 0 mm 2 m/S 736 mmHg 48%
    21:00 +13°C° 0 mm 3 m/S 736 mmHg 51%
    22:00 +13°C° 0 mm 3 m/S 735 mmHg 53%
    23:00 +12°C° 0 mm 3 m/S 735 mmHg 56%

    25 April, Donnerstag

    Zeit Temperatur Niederschläge Wind Luftdruck Luftfeuchtigkeit
    00:00 +12°C° 0 mm 3 m/S 735 mmHg 59%
    01:00 +12°C° 0 mm 3 m/S 734 mmHg 59%
    02:00 +12°C° 0 mm 3 m/S 734 mmHg 59%
    03:00 +13°C° 0 mm 3 m/S 734 mmHg 60%
    04:00 +12°C° 0.2 mm 3 m/S 734 mmHg 62%
    05:00 +12°C° 0.2 mm 3 m/S 734 mmHg 65%
    06:00 +12°C° 0.2 mm 3 m/S 734 mmHg 67%
    07:00 +14°C° 0.1 mm 4 m/S 734 mmHg 68%
    08:00 +15°C° 0.1 mm 4 m/S 734 mmHg 68%
    09:00 +18°C° 0.1 mm 4 m/S 734 mmHg 69%
    10:00 +19°C° 0 mm 5 m/S 735 mmHg 62%
    11:00 +20°C° 0 mm 5 m/S 735 mmHg 55%
    12:00 +22°C° 0 mm 6 m/S 735 mmHg 48%
    13:00 +22°C° 0 mm 6 m/S 736 mmHg 46%
    14:00 +22°C° 0 mm 6 m/S 736 mmHg 43%
    15:00 +22°C° 0 mm 6 m/S 736 mmHg 41%
    16:00 +21°C° 0 mm 6 m/S 737 mmHg 45%
    17:00 +20°C° 0 mm 5 m/S 737 mmHg 48%
    18:00 +19°C° 0 mm 4 m/S 737 mmHg 52%
    19:00 +18°C° 0 mm 4 m/S 738 mmHg 51%
    20:00 +17°C° 0 mm 3 m/S 739 mmHg 51%
    21:00 +14°C° 0 mm 3 m/S 739 mmHg 51%
    22:00 +13°C° 0 mm 3 m/S 740 mmHg 48%
    23:00 +13°C° 0 mm 3 m/S 740 mmHg 45%
    Mehr zeigen